Weather History for Crisp Cnty-Cordele AP, Cordel, GA

Change the Weather History Date:

Thursday, March 6, 2014

  Actual Average (KABY) Record (KABY)
Temperature  
Mean Temperature 46 °F 57 °F  
Max Temperature 51 °F 70 °F 88 °F (1961)
Min Temperature 41 °F 44 °F 21 °F (1960)
Degree Days  
Heating Degree Days 19 9  
Month to date heating degree days 57  
Since 1 July heating degree days 1617  
Cooling Degree Days 0 1  
Month to date cooling degree days 6  
Year to date cooling degree days 15  
Moisture  
Dew Point 42 °F    
Average Humidity 89    
Maximum Humidity 93    
Minimum Humidity 82    
Precipitation  
Precipitation 0.00 in 0.15 in 0.07 in (2004)
Month to date precipitation 0.82  
Year to date precipitation 9.80  
Sea Level Pressure  
Sea Level Pressure 30.02 in    
Wind  
Wind Speed 9 mph (NE)    
Max Wind Speed 18 mph    
Max Gust Speed 25 mph    
Visibility 8 miles    
Events Rain , Thunderstorm    
T = Trace of Precipitation, MM = Missing Value Source: NWS Daily Summary

Daily Weather History Graph

Daily Weather History Graph

Search for Another Location

Airport:

Trip Planner

Search our weather history database for the weather conditions in past years. The results will help you decide how hot, cold, wet, or windy it might be!

Date:

Astronomy

Mar. 06, 2014 Rise Set
Actual Time 6:56 AM EST 6:36 PM EST
Civil Twilight 6:31 AM EST 7:01 PM EST
Nautical Twilight 6:03 AM EST 7:29 PM EST
Astronomical Twilight 5:35 AM EST 7:57 PM EST
Moon 10:23 AM EST (3/6) No Moon Set
Length of Visible Light 12h 29m
Length of Day
11h 40m
Waxing Crescent, 32% of the Moon is Illuminated
Mar 6
Waxing Crescent
Mar 8
First Quarter
Mar 16
Full
Mar 23
Last Quarter
Mar 30
New

Hourly Weather History & Observations

Time (EST) Temp. Windchill Dew Point Humidity Pressure Visibility Wind Dir Wind Speed Gust Speed Precip Events Conditions
12:20 AM 51.8 °F - 46.8 °F 83% 30.12 in 10.0 mi East 6.9 mph - N/A   Overcast
12:35 AM 51.8 °F - 46.6 °F 82% 30.11 in 10.0 mi East 8.1 mph - N/A   Overcast
12:55 AM 51.8 °F - 46.6 °F 82% 30.11 in 10.0 mi East 9.2 mph - N/A   Overcast
1:15 AM 51.4 °F - 46.4 °F 83% 30.11 in 10.0 mi ESE 8.1 mph 11.5 mph N/A   Overcast
1:35 AM 51.4 °F - 46.4 °F 83% 30.10 in 10.0 mi East 6.9 mph - N/A   Overcast
1:55 AM 51.3 °F - 46.4 °F 83% 30.09 in 10.0 mi East 6.9 mph - N/A   Overcast
2:15 AM 51.3 °F - 46.0 °F 82% 30.09 in 10.0 mi East 6.9 mph - N/A   Overcast
2:35 AM 51.3 °F - 46.0 °F 82% 30.09 in 10.0 mi ENE 3.5 mph - N/A   Overcast
2:55 AM 51.1 °F - 46.0 °F 83% 30.08 in 10.0 mi ENE 8.1 mph - N/A   Overcast
3:15 AM 50.9 °F - 46.0 °F 83% 30.07 in 10.0 mi ENE 6.9 mph - N/A   Overcast
3:35 AM 50.5 °F - 45.9 °F 84% 30.07 in 10.0 mi ENE 6.9 mph - N/A   Overcast
3:55 AM 50.0 °F - 45.5 °F 85% 30.07 in 10.0 mi ENE 9.2 mph - N/A   Overcast
4:15 AM 49.1 °F - 45.0 °F 86% 30.06 in 10.0 mi ENE 10.4 mph - N/A   Overcast
4:35 AM 48.7 °F - 45.0 °F 87% 30.05 in 10.0 mi ENE 8.1 mph - N/A   Overcast
4:55 AM 48.2 °F - 44.8 °F 88% 30.06 in 10.0 mi ENE 6.9 mph - N/A   Overcast
5:15 AM 48.2 °F - 44.6 °F 87% 30.04 in 10.0 mi ENE 9.2 mph 16.1 mph N/A   Overcast
5:35 AM 48.2 °F - 44.6 °F 87% 30.06 in 10.0 mi NE 8.1 mph - N/A   Overcast
5:55 AM 47.8 °F - 44.6 °F 89% 30.06 in 10.0 mi NE 9.2 mph - N/A   Overcast
6:15 AM 48.2 °F - 44.6 °F 87% 30.07 in 10.0 mi ENE 11.5 mph - N/A   Overcast
6:35 AM 47.8 °F - 44.6 °F 89% 30.07 in 7.0 mi NE 9.2 mph - N/A   Overcast
6:55 AM 47.8 °F - 44.2 °F 87% 30.07 in 10.0 mi ENE 13.8 mph 17.3 mph N/A Rain Light Rain
7:15 AM 47.7 °F - 44.6 °F 89% 30.07 in 10.0 mi ENE 10.4 mph 16.1 mph N/A Rain Light Rain
7:35 AM 47.5 °F - 44.8 °F 90% 30.08 in 7.0 mi ENE 9.2 mph - N/A Rain Rain
7:55 AM 47.5 °F - 45.0 °F 91% 30.09 in 5.0 mi ENE 11.5 mph 16.1 mph N/A Rain Rain
8:15 AM 47.5 °F - 44.8 °F 90% 30.10 in 5.0 mi ENE 12.7 mph - N/A Rain Rain
8:35 AM 46.9 °F - 44.6 °F 92% 30.11 in 5.0 mi ENE 6.9 mph - N/A Rain Rain
8:55 AM 46.8 °F - 44.1 °F 90% 30.10 in 5.0 mi ENE 12.7 mph 18.4 mph N/A Rain Rain
9:15 AM 46.4 °F 41.9 °F 43.7 °F 90% 30.10 in 7.0 mi ENE 9.2 mph - N/A Rain Rain
9:35 AM 45.9 °F 39.7 °F 43.2 °F 90% 30.09 in 7.0 mi ENE 13.8 mph 18.4 mph N/A Rain Light Rain
9:55 AM 45.9 °F 39.1 °F 42.8 °F 89% 30.09 in 7.0 mi ENE 16.1 mph 24.2 mph N/A Rain Light Rain
10:15 AM 45.5 °F 39.2 °F 42.8 °F 90% 30.08 in 7.0 mi ENE 13.8 mph 21.9 mph N/A Rain Light Rain
10:35 AM 45.5 °F 39.6 °F 42.4 °F 89% 30.08 in 7.0 mi ENE 12.7 mph 20.7 mph N/A Rain Light Rain
10:55 AM 45.5 °F 39.6 °F 42.8 °F 90% 30.07 in 7.0 mi ENE 12.7 mph 18.4 mph N/A Rain Light Rain
11:15 AM 45.0 °F 38.9 °F 42.3 °F 90% 30.06 in 7.0 mi ENE 12.7 mph 21.9 mph N/A Rain Light Rain
11:35 AM 45.3 °F 39.0 °F 42.6 °F 90% 30.02 in 7.0 mi ENE 13.8 mph 20.7 mph N/A Rain Light Rain
11:55 AM 45.7 °F 38.8 °F 43.0 °F 90% 30.01 in 7.0 mi ENE 16.1 mph 24.2 mph N/A Rain Rain
12:15 PM 46.0 °F 39.0 °F 43.2 °F 90% 30.00 in 10.0 mi ENE 17.3 mph 24.2 mph N/A   Overcast
12:35 PM 45.7 °F 38.3 °F 42.6 °F 89% 29.99 in 10.0 mi ENE 18.4 mph 25.3 mph N/A   Overcast
12:55 PM 45.7 °F 41.0 °F 42.4 °F 88% 30.00 in 10.0 mi NE 9.2 mph 21.9 mph N/A   Overcast
1:15 PM 45.5 °F 38.6 °F 42.4 °F 89% 29.99 in 10.0 mi ENE 16.1 mph - N/A   Overcast
1:35 PM 44.8 °F 37.7 °F 41.9 °F 90% 29.97 in 10.0 mi NE 16.1 mph 20.7 mph N/A   Overcast
1:55 PM 44.6 °F 37.8 °F 41.9 °F 90% 29.96 in 5.0 mi ENE 15.0 mph 21.9 mph N/A   Overcast
2:15 PM 44.6 °F 38.4 °F 41.9 °F 90% 29.97 in 4.0 mi ENE 12.7 mph 19.6 mph N/A Rain Heavy Rain
2:35 PM 44.2 °F 38.4 °F 41.9 °F 91% 29.97 in 7.0 mi NE 11.5 mph 17.3 mph N/A Rain Rain
2:55 PM 43.9 °F 37.9 °F 41.5 °F 91% 29.97 in 4.0 mi NNE 11.5 mph 17.3 mph N/A Rain Light Rain
3:15 PM 43.3 °F 36.5 °F 40.8 °F 91% 29.97 in 5.0 mi NNE 13.8 mph 18.4 mph N/A Rain Light Rain
3:35 PM 43.5 °F 37.9 °F 41.0 °F 91% 29.99 in 3.0 mi NE 10.4 mph 16.1 mph N/A Rain Heavy Rain
3:55 PM 43.3 °F 37.7 °F 41.2 °F 92% 29.99 in 4.0 mi NNE 10.4 mph - N/A Rain Rain
4:15 PM 43.0 °F 36.8 °F 40.6 °F 91% 29.98 in 2.0 mi NNE 11.5 mph - N/A Rain Rain
4:35 PM 43.2 °F 37.4 °F 40.8 °F 91% 29.97 in 7.0 mi NE 10.4 mph 17.3 mph N/A Rain Heavy Rain
4:55 PM 42.6 °F 36.3 °F 40.1 °F 91% 29.97 in 3.0 mi NNE 11.5 mph - N/A Rain Rain
5:15 PM 42.4 °F 38.1 °F 40.1 °F 91% 29.98 in 5.0 mi NNE 6.9 mph - N/A   Heavy Drizzle
5:35 PM 41.9 °F 36.3 °F 39.6 °F 91% 29.97 in 4.0 mi NE 9.2 mph - N/A   Heavy Drizzle
5:55 PM 41.9 °F 36.3 °F 39.6 °F 91% 29.97 in 7.0 mi NE 9.2 mph - N/A Rain Light Rain
6:15 PM 41.9 °F 35.9 °F 39.2 °F 90% 29.98 in 10.0 mi NNE 10.4 mph - N/A Thunderstorm Overcast
6:35 PM 41.9 °F 37.5 °F 39.4 °F 91% 29.98 in 5.0 mi NNE 6.9 mph - N/A Rain Rain
6:55 PM 41.4 °F 36.8 °F 38.8 °F 91% 29.98 in 7.0 mi NNE 6.9 mph 18.4 mph N/A Rain Rain
7:15 PM 41.4 °F 35.2 °F 39.2 °F 92% 29.97 in 5.0 mi NE 10.4 mph - N/A Rain Light Rain
7:35 PM 41.7 °F 35.6 °F 39.2 °F 91% 29.97 in 7.0 mi NNE 10.4 mph 18.4 mph N/A Rain Light Rain
7:55 PM 41.9 °F 37.5 °F 39.2 °F 90% 29.97 in 10.0 mi NE 6.9 mph 16.1 mph N/A   Overcast
8:15 PM 41.5 °F 35.4 °F 38.8 °F 90% 29.97 in 10.0 mi NE 10.4 mph 18.4 mph N/A   Overcast
8:35 PM 41.4 °F 34.7 °F 38.8 °F 91% 29.96 in 7.0 mi NE 11.5 mph 17.3 mph N/A   Light Drizzle
8:55 PM 41.4 °F 35.2 °F 38.7 °F 90% 29.96 in 10.0 mi NE 10.4 mph 16.1 mph N/A   Overcast
9:15 PM 41.4 °F 36.2 °F 38.8 °F 91% 29.96 in 10.0 mi NE 8.1 mph - N/A   Overcast
9:35 PM 41.4 °F 35.2 °F 38.8 °F 91% 29.96 in 7.0 mi NE 10.4 mph - N/A   Overcast
9:55 PM 41.4 °F 35.2 °F 38.7 °F 90% 29.96 in 10.0 mi NE 10.4 mph - N/A   Overcast
10:15 PM 41.5 °F 35.4 °F 38.8 °F 90% 29.96 in 10.0 mi NE 10.4 mph - N/A   Overcast
10:35 PM 41.5 °F 35.9 °F 39.0 °F 91% 29.96 in 7.0 mi NE 9.2 mph - N/A   Overcast
10:55 PM 41.4 °F 36.8 °F 39.2 °F 92% 29.96 in 5.0 mi NE 6.9 mph - N/A   Overcast
11:15 PM 41.5 °F 37.8 °F 39.2 °F 91% 29.97 in 7.0 mi NNE 5.8 mph - N/A   Overcast
11:35 PM 41.5 °F 37.8 °F 39.4 °F 92% 29.96 in 5.0 mi NE 5.8 mph - N/A   Overcast
11:55 PM 41.4 °F 36.2 °F 39.4 °F 93% 29.95 in 4.0 mi NNE 8.1 mph - N/A   Drizzle